DECAYED

STARLINK-4195, 52870 (Decayed)

Orbit data source: Space-Track

STARLINK-4195, 52870 was a payload satellite owned by SpaceX/Seattle (US) in LEO that was launched on Fri, 17 Jun 2022 UTC via an FALCON 9 launch vehicle from the Air Force Eastern Test Range (AFETR). Payload-class satellites include a variety of spacecraft equipped with specific instruments for various scientific and technological missions. These include communications satellites like Starlink; space stations such as the ISS; scientific satellites like the Hubble; Earth observation satellites from companies like Planet Labs, Umbra, and HawkEye 360; GPS; miniature CubeSats for education and research; and military/defense satellites.

Not visible in the next 10 days
Identifier
52870, 2022-062AS
Orbit
Decayed
Country
Flag of USUS
Related business
Manufacturer
SpaceX/Seattle
Mission
Decayed Commercial Communications
Bus & Motor
STARLINK, Unknown motor
Mass
297 kg wet, ~275 kg dry
Launch date (UTC)
2022-06-17 (4 years ago)
Launch vehicle
FALCON 9
Launch site
Air Force Eastern Test Range (AFETR)
Object type
Payload
Rocket body
Debris
Shape & HBR
Box + 1 Pan, 10.1 m
Radar Cross Section
13.562 m², Large (>1 m²)

Expand to show TLE details & history
Last TLE update: 4 months ago

TLE from 4 months ago
0 STARLINK-4195
1 52870U 22062AS  26044.61861990  .08544083  12382-4  47131-3 0  9991
2 52870  53.2023 108.6619 0002852 235.7033 124.3747 16.42222933202635
Epoch: 2026-02-13T14:50Z
TLE epoch observation values (Epoch: 2026-02-13T14:50:48.759Z)
Latitude
-0.00001°
Longitude
102.3053°
Altitude
161.897 km
Speed
7.81 km/s
True Right ascension
07h 14m 38s
True Declination
0° 00' 00"
Sunlit
Object was in full shadow at epoch
Visualization orbit readout
Latitude
Unknown
Longitude
Unknown
Altitude
Unknown
Speed
Unknown
Apparent Right ascension
Unknown
Apparent Declination
Unknown
Sunlit
N/A
Visualization observer readout
Local Sidereal Time
23:18:23
Azimuth
Unknown
Elevation
Unknown
Doppler factor
Unknown
Orbital elements
Apogee altitude
162.022 km
Perigee altitude
158.292 km
Semi-major axis
6,538.294 km
Eccentricity
0.00029
Inclination
53.2023°
RAAN
108.6619°
Arg. of periapsis
235.7033°
True anomaly
124.40167°
Mean anomaly
124.3747°
Eccentric anomaly
124.38818°
Mean motion
4.10532 °/min
Orbital period
87.69 mins
BSTAR
0.00047131
Loading maneuver chart data...
Computing Atmospheric mass density...
Loading historical data...
Loading historical data...
Loading historical data...
Loading historical data...
Loading historical data...
Loading historical data...
Loading historical data...

Documentation

Showing up to 5 results
|